timestamp,surface_pressure_avg,surface_temp_avg,battery_voltage,lat,long
2022-06-29 00:09:00+00:00,347.5162,15.67,12.17,47.84626,-54.09684
2022-06-29 00:19:00+00:00,344.9496,15.81,12.17,47.84626,-54.09684
2022-06-29 00:29:00+00:00,343.7347,15.9,12.17,47.84626,-54.09684
2022-06-29 00:39:00+00:00,341.723,15.9,12.17,47.84626,-54.09684
2022-06-29 00:49:00+00:00,337.7047,15.95,12.17,47.84626,-54.09684
2022-06-29 00:59:00+00:00,331.2946,15.95,12.17,47.84626,-54.09684
2022-06-29 01:09:00+00:00,331.3729,16.0,12.17,47.84626,-54.09684
2022-06-29 01:19:01+00:00,330.8313,16.0,12.17,47.84626,-54.09684
2022-06-29 01:29:01+00:00,327.2413,16.07,12.17,47.84626,-54.09684
2022-06-29 01:39:01+00:00,320.3147,16.0,12.17,47.84626,-54.09684
2022-06-29 01:49:01+00:00,314.4113,16.08,12.17,47.84626,-54.09684
2022-06-29 01:59:01+00:00,310.228,16.1,12.17,47.84626,-54.09684
2022-06-29 02:09:01+00:00,304.9464,16.1,12.17,47.84626,-54.09684
2022-06-29 02:19:01+00:00,300.3464,16.2,12.17,47.84626,-54.09684
2022-06-29 02:29:01+00:00,295.048,16.12,12.17,47.84626,-54.09684
2022-06-29 02:39:01+00:00,288.8447,16.1,12.17,47.84626,-54.09684
2022-06-29 02:49:01+00:00,279.6314,16.08,12.17,47.84626,-54.09684
2022-06-29 02:59:01+00:00,271.2114,16.0,12.17,47.84626,-54.09684
2022-06-29 03:09:01+00:00,265.9664,16.0,12.17,47.84626,-54.09684
2022-06-29 03:19:00+00:00,260.6581,16.0,12.17,47.84626,-54.09684
2022-06-29 03:29:00+00:00,250.9464,16.0,12.17,47.84626,-54.09684
2022-06-29 03:39:00+00:00,242.9664,16.06,12.17,47.84626,-54.09684
2022-06-29 03:49:00+00:00,236.4948,16.09,12.17,47.84626,-54.09684
2022-06-29 03:59:00+00:00,228.7097,16.1,12.17,47.84626,-54.09684
2022-06-29 04:09:00+00:00,218.5497,16.09,12.17,47.84626,-54.09684
2022-06-29 04:19:00+00:00,211.6731,16.15,12.17,47.84626,-54.09684
2022-06-29 04:29:00+00:00,207.7131,16.2,12.17,47.84626,-54.09684
2022-06-29 04:39:00+00:00,201.8465,16.36,12.17,47.84626,-54.09684
2022-06-29 04:49:00+00:00,195.3332,16.45,12.17,47.84626,-54.09684
2022-06-29 04:59:00+00:00,193.3347,16.55,12.17,47.84626,-54.09684
2022-06-29 05:09:00+00:00,191.7598,16.6,12.17,47.84626,-54.09684
2022-06-29 05:19:01+00:00,189.4932,16.6,12.09,47.84626,-54.09684
2022-06-29 05:29:01+00:00,190.1514,16.6,12.09,47.84626,-54.09684
2022-06-29 05:39:01+00:00,193.1598,16.6,12.09,47.84626,-54.09684
2022-06-29 05:49:01+00:00,191.4798,16.5,12.09,47.84626,-54.09684
2022-06-29 05:59:01+00:00,188.6765,16.28,12.09,47.84626,-54.09684
2022-06-29 06:09:01+00:00,190.8465,16.0,12.09,47.84626,-54.09684
2022-06-29 06:19:00+00:00,193.4681,16.15,12.09,47.84626,-54.09684
2022-06-29 06:29:00+00:00,193.4531,16.0,12.09,47.84626,-54.09684
2022-06-29 06:39:00+00:00,195.3248,15.9,12.09,47.84626,-54.09684
2022-06-29 06:49:00+00:00,199.4664,15.8,12.09,47.84626,-54.09684
2022-06-29 06:59:00+00:00,202.1314,15.8,12.09,47.84626,-54.09684
2022-06-29 07:09:00+00:00,205.2715,15.7,12.09,47.84626,-54.09684
2022-06-29 07:19:00+00:00,210.0714,15.6,12.09,47.84626,-54.09684
2022-06-29 07:29:00+00:00,215.5764,15.42,12.09,47.84626,-54.09684
2022-06-29 07:39:00+00:00,217.9965,15.5,12.09,47.84626,-54.09684
2022-06-29 07:49:00+00:00,220.1481,15.5,12.09,47.84626,-54.09684
2022-06-29 07:59:00+00:00,223.8882,15.5,12.09,47.84626,-54.09684
2022-06-29 08:09:00+00:00,229.5748,15.5,12.09,47.84626,-54.09684
2022-06-29 08:19:00+00:00,232.8364,15.3,12.09,47.84626,-54.09684
2022-06-29 08:29:00+00:00,235.9298,15.3,12.09,47.84626,-54.09684
2022-06-29 08:39:00+00:00,241.193,15.2,12.09,47.84626,-54.09684
2022-06-29 08:49:00+00:00,246.1264,15.04,12.09,47.84626,-54.09684
2022-06-29 08:59:00+00:00,251.6248,14.9,12.09,47.84626,-54.09684
2022-06-29 09:09:00+00:00,255.1264,15.0,12.09,47.84626,-54.09684
2022-06-29 09:19:00+00:00,259.3331,15.1,12.09,47.84626,-54.09684
2022-06-29 09:29:00+00:00,264.3181,15.16,12.09,47.84626,-54.09684
2022-06-29 09:39:00+00:00,269.0547,15.0,12.09,47.84626,-54.09684
2022-06-29 09:49:00+00:00,272.4948,15.08,12.09,47.84626,-54.09684
2022-06-29 09:59:00+00:00,277.3381,15.1,12.09,47.84626,-54.09684
2022-06-29 10:09:00+00:00,281.538,15.21,12.09,47.84626,-54.09684
2022-06-29 10:19:00+00:00,284.913,15.32,12.09,47.84626,-54.09684
2022-06-29 10:29:00+00:00,288.9797,15.42,12.09,47.84626,-54.09684
2022-06-29 10:39:00+00:00,293.153,15.5,12.09,47.84626,-54.09684
2022-06-29 10:49:00+00:00,295.4431,15.49,12.09,47.84626,-54.09684
2022-06-29 10:59:00+00:00,300.0347,15.44,12.09,47.84626,-54.09684
2022-06-29 11:09:00+00:00,301.593,15.4,12.09,47.84626,-54.09684
2022-06-29 11:19:00+00:00,304.2647,15.3,12.09,47.84626,-54.09684
2022-06-29 11:29:00+00:00,311.3947,15.2,12.09,47.84626,-54.09684
2022-06-29 11:39:00+00:00,315.2496,15.27,12.09,47.84626,-54.09684
2022-06-29 11:49:00+00:00,314.3063,15.2,12.09,47.84626,-54.09684
2022-06-29 11:59:00+00:00,313.168,14.98,12.09,47.84626,-54.09684
2022-06-29 12:09:00+00:00,316.33799999999997,15.1,12.09,47.84626,-54.09684
2022-06-29 12:19:00+00:00,314.3197,15.28,12.09,47.84626,-54.09684
2022-06-29 12:29:00+00:00,311.9514,15.3,12.09,47.84626,-54.09684
2022-06-29 12:39:00+00:00,309.653,15.38,12.09,47.84626,-54.09684
2022-06-29 12:49:00+00:00,306.3196,15.4,12.09,47.84626,-54.09684
2022-06-29 12:59:00+00:00,303.303,15.55,12.09,47.84626,-54.09684
2022-06-29 13:09:00+00:00,302.7763,15.65,12.09,47.84626,-54.09684
2022-06-29 13:19:00+00:00,302.563,15.7,12.17,47.84626,-54.09684
2022-06-29 13:29:00+00:00,301.7646,15.7,12.17,47.84626,-54.09684
2022-06-29 13:39:00+00:00,299.7947,15.59,12.17,47.84626,-54.09684
2022-06-29 13:49:00+00:00,298.983,15.49,12.17,47.84626,-54.09684
2022-06-29 13:59:00+00:00,294.08299999999997,15.54,12.17,47.84626,-54.09684
2022-06-29 14:09:00+00:00,288.6347,15.5,12.17,47.84626,-54.09684
2022-06-29 14:19:00+00:00,284.958,15.32,12.17,47.84626,-54.09684
2022-06-29 14:29:00+00:00,278.168,15.44,12.17,47.84626,-54.09684
2022-06-29 14:39:00+00:00,269.3014,15.51,12.17,47.84626,-54.09684
2022-06-29 14:49:00+00:00,263.7147,15.53,12.17,47.84626,-54.09684
2022-06-29 14:59:00+00:00,262.3664,15.95,12.17,47.84626,-54.09684
2022-06-29 15:09:00+00:00,254.0281,16.2,12.17,47.84626,-54.09684
2022-06-29 15:19:00+00:00,245.7397,16.2,12.17,47.84626,-54.09684
2022-06-29 15:29:00+00:00,240.7047,16.1,12.17,47.84626,-54.09684
2022-06-29 15:39:00+00:00,231.7847,16.2,12.17,47.84626,-54.09684
2022-06-29 15:49:00+00:00,222.963,16.25,12.17,47.84626,-54.09684
2022-06-29 15:59:00+00:00,218.1581,16.3,12.17,47.84626,-54.09684
2022-06-29 16:09:00+00:00,212.8431,16.35,12.17,47.84626,-54.09684
2022-06-29 16:19:00+00:00,205.4081,16.4,12.33,47.84626,-54.09684
2022-06-29 16:29:00+00:00,200.3798,16.42,12.33,47.84626,-54.09684
2022-06-29 16:39:00+00:00,196.9748,16.63,12.33,47.84626,-54.09684
2022-06-29 16:49:00+00:00,191.7948,16.69,12.33,47.84626,-54.09684
2022-06-29 16:59:00+00:00,188.5781,16.59,12.33,47.84626,-54.09684
2022-06-29 17:09:00+00:00,187.8165,16.63,12.33,47.84626,-54.09684
2022-06-29 18:19:00+00:00,194.0231,16.39,12.41,47.84626,-54.09684
2022-06-29 18:29:00+00:00,197.1097,16.36,12.41,47.84626,-54.09684
2022-06-29 18:39:00+00:00,194.3831,16.2,12.41,47.84626,-54.09684
2022-06-29 18:49:00+00:00,196.8098,16.1,12.41,47.84626,-54.09684
2022-06-29 18:59:00+00:00,203.3715,16.2,12.41,47.84626,-54.09684
2022-06-29 19:09:00+00:00,205.1615,15.7,12.41,47.84626,-54.09684
2022-06-29 19:19:00+00:00,207.0864,15.83,12.41,47.84626,-54.09684
2022-06-29 19:29:00+00:00,215.1714,15.8,12.41,47.84626,-54.09684
2022-06-29 19:39:00+00:00,220.8448,15.6,12.41,47.84626,-54.09684
2022-06-29 19:49:00+00:00,223.4614,15.5,12.41,47.84626,-54.09684
2022-06-29 19:59:00+00:00,228.7248,15.6,12.41,47.84626,-54.09684
2022-06-29 20:09:00+00:00,234.8765,15.79,12.41,47.84626,-54.09684
2022-06-29 20:19:00+00:00,239.7747,15.97,12.33,47.84626,-54.09684
2022-06-29 20:29:00+00:00,243.2597,16.1,12.33,47.84626,-54.09684
2022-06-29 20:39:00+00:00,247.3281,16.1,12.33,47.84626,-54.09684
2022-06-29 20:49:00+00:00,251.7314,16.19,12.33,47.84626,-54.09684
2022-06-29 20:59:00+00:00,256.4414,16.2,12.33,47.84626,-54.09684
2022-06-29 21:09:00+00:00,261.0347,16.2,12.33,47.84626,-54.09684
2022-06-29 21:19:00+00:00,265.2397,16.3,12.33,47.84626,-54.09684
2022-06-29 21:29:00+00:00,269.8314,16.21,12.33,47.84626,-54.09684
2022-06-29 21:39:00+00:00,275.4581,16.1,12.33,47.84626,-54.09684
2022-06-29 21:49:00+00:00,282.0298,16.24,12.33,47.84626,-54.09684
2022-06-29 21:59:00+00:00,287.7397,15.88,12.33,47.84626,-54.09684
2022-06-29 22:09:00+00:00,292.8763,14.58,12.33,47.84626,-54.09684
2022-06-29 22:19:00+00:00,298.4663,15.13,12.25,47.84626,-54.09684
2022-06-29 22:29:00+00:00,306.2797,14.98,12.25,47.84626,-54.09684
2022-06-29 22:39:00+00:00,313.8246,15.06,12.25,47.84626,-54.09684
2022-06-29 22:49:00+00:00,319.068,14.6,12.25,47.84626,-54.09684
2022-06-29 22:59:00+00:00,324.6597,14.75,12.25,47.84626,-54.09684
2022-06-29 23:09:00+00:00,328.9313,15.0,12.25,47.84626,-54.09684
2022-06-29 23:19:00+00:00,333.2196,14.98,12.17,47.84626,-54.09684
2022-06-29 23:29:00+00:00,339.2446,14.8,12.17,47.84626,-54.09684
2022-06-29 23:39:00+00:00,346.3563,14.8,12.17,47.84626,-54.09684
2022-06-29 23:49:00+00:00,345.9645,14.89,12.17,47.84626,-54.09684
2022-06-29 23:59:00+00:00,344.4563,14.92,12.17,47.84626,-54.09684
